Location: Newark
(11.6000°N, 43.1667°E)
Time: 21:51:49
(UTC+00:00)

LightSail 2 - Pass Details

Date: 20 September 2019
Orbit: 707 x 722 km, 24.0° (Epoch: 18 October)

Event Time Altitude Azimuth Distance (km) Brightness Sun altitude
Exits shadow 00:39:28 29° 59° (ENE) 1,277 6.9 -34.2°
Drops below altitude 10° 00:41:57 10° 64° (ENE) 2,159 8.4 -33.6°
Sets 00:44:23 0° 66° (ENE) 3,078 9.4 -33.1°
